Location: Tamazert
(32.6352°N, 5.2072°W)
Time: 19:31:36
(UTC+00:00)

deb Explorer IX - Pass Details

Date: 04 October 2022
Orbit: 533 x 1057 km, 38.8° (Epoch: 06 December)

Event Time Altitude Azimuth Distance (km) Brightness Sun altitude
Exits shadow 04:36:48 21° 185° (S) 1,365 ? -21.8°
Maximum altitude 04:38:46 30° 143° (SE) 1,140 ? -21.4°
Drops below altitude 10° 04:43:03 10° 83° (E) 2,148 ? -20.5°
Sets 04:45:52 0° 73° (ENE) 3,170 ? -19.9°
